sat.trackr.live / text

‹ back to catalog

QIANFAN-75

NORAD 63161 · 2025-046C

PAYLOAD ACTIVE UNKNOWN

§ Identity

Operator
Country
PRC
Launch date
2025-03-11
Launch site
WSC
Launch vehicle
Mass (kg)
RCS (m²)

External: N2YO · Heavens-Above · Gunter

§ Orbital elements

Epoch: 2026-05-25T04:22:49.390176Z

Period
106.59 min
Inclination
88.9691°
Eccentricity
0.0016406
Mean motion
13.51003817 rev/d
Perigee alt
1,056.4 km
Apogee alt
1,080.8 km
Semi-major
7,446.7 km
B*
4.5078e-5
RAAN
303.2042°
Arg perigee
21.7763°
Mean anomaly
338.4083°
Rev number
6,941

§ Raw data

QIANFAN-751 63161U 25046C   26145.18251609  .00000041  00000+0  45078-4 0  99962 63161  88.9691 303.2042 0016406  21.7763 338.4083 13.51003817 69415

JSON: /api/v1/satellites/63161 · /tle

For live sub-satellite position, see the globe view (requires WebGL).

§ Visibility from observer

Set your observer location to see the next 7 days of passes ≥ 10°. The values pass through the URL so the page stays shareable.

No JS? Fill the form by hand. The geolocation button needs JavaScript.